Location: G�ndlingen
(48.0142°N, 7.6396°E)
Time: 08:36:24
(UTC+00:00)

Cosmos 1818 - Pass Details

Date: 05 July 2020
Orbit: 777 x 796 km, 65.0° (Epoch: 04 August)

Event Time Altitude Azimuth Distance (km) Brightness Sun altitude
Rises 20:47:00 0° 221° (SW) 3,270 6.7 -10.0°
Reaches altitude 10° 20:49:24 10° 222° (SW) 2,347 5.9 -10.2°
Maximum altitude 20:54:49 77° 309° (NW) 817 3.8 -10.8°
Drops below altitude 10° 21:00:17 10° 36° (NE) 2,372 6.3 -11.3°
Sets 21:02:44 0° 38° (NE) 3,307 7.0 -11.6°
